Location: Chisholm
(54.9102°N, 114.1701°W)
Time: 10:32:22
(UTC+00:00)

N. Korean satellite - Pass Details

Date: 06 December 2021
Orbit: 447 x 491 km, 97.3° (Epoch: 23 January)

Event Time Altitude Azimuth Distance (km) Brightness Sun altitude
Rises 14:48:22 0° 358° (N) 2,476 9.8 -7.5°
Reaches altitude 10° 14:52:04 10° 316° (NW) 1,589 8.6 -7.1°
Maximum altitude 14:52:39 10° 306° (NW) 1,567 8.5 -7.0°
Drops below altitude 10° 14:53:13 10° 296° (WNW) 1,586 8.5 -6.9°
Sets 14:56:53 0° 253° (WSW) 2,450 9.7 -6.5°
